Temp_Advection
nan nan nan nan nan nan nan nan nan nan nan nan nan nan nan nan nan nan nan nan nan nan nan nan nan nan nan nan nan nan nan nan nan nan nan nan nan nan nan nan nan nan nan nan nan nan nan nan nan
nan 0 0 -0 -0 0 -0 -0 -0 0 0 0 -0 -0 -0 -0 -0 -0 0 1 0 -0 -0 -0 -0 -0 -0 -0 -0 -0 -0 -0 -0 -0 -0 -0 -0 0 -0 -0 -0 -0 0 -0 -0 0 0 0 nan
nan 0 0 -0 0 -0 -0 -0 0 0 0 -0 -0 -0 -0 -0 0 -0 -0 0 0 0 -0 -0 -0 0 0 0 0 0 -0 -0 -0 -0 -0 -0 0 -0 -0 0 0 0 0 0 0 0 0 0 nan
nan -0 -0 0 -0 -0 -0 -0 -0 -0 -0 -0 -0 -0 -0 0 -0 -0 -0 0 0 0 0 0 0 0 0 0 0 0 0 -0 -0 -0 -0 0 0 0 0 0 0 -0 -0 -0 -0 -0 -0 0 nan
nan -0 -0 0 -0 -0 -0 -0 0 0 -0 -0 -0 -0 -0 0 0 -0 -0 0 0 -0 0 0 0 -0 0 0 0 0 0 0 0 0 0 0 0 0 0 0 -0 0 -0 -0 -0 -0 -0 0 nan
nan -0 -0 0 -0 -0 -0 -0 0 0 0 0 -0 -0 0 0 0 0 0 0 0 0 -0 0 0 -0 0 0 0 0 0 0 0 0 0 0 0 0 0 0 0 -0 -0 0 0 0 -0 -0 nan
nan -0 0 -0 -0 -0 -0 0 -0 -0 0 0 -0 -0 0 0 1 0 0 0 0 0 0 0 -0 -0 -0 0 0 0 -0 0 0 0 0 0 0 0 0 0 0 -0 -0 -0 -0 0 -0 -0 nan
nan -0 0 -0 -0 -0 -0 -0 -0 -0 -0 0 0 -0 -0 -0 1 1 0 1 0 0 0 0 -0 0 -0 0 0 0 -0 0 -0 -0 0 0 0 0 -0 0 0 0 -0 -0 -0 -0 -0 0 nan
nan -0 -0 -0 -0 -0 -0 -0 0 0 -0 0 0 -0 -0 -1 -0 -0 -0 0 0 0 -0 -0 -0 -0 -0 -0 -0 -0 -0 -0 -0 -0 -0 -0 -0 -0 -0 0 0 0 -0 -0 -0 0 0 0 nan
nan -0 -1 -0 -0 -0 -0 0 -0 -0 0 -0 0 0 0 -0 -1 -1 -1 -1 -1 -0 -0 -0 0 -0 -0 -0 -0 -0 0 -0 -0 -0 -0 -0 -0 -0 -0 -0 -0 -0 -0 -0 -0 0 -0 0 nan
nan -0 -0 -0 -0 0 -0 -0 0 -0 -0 -0 -1 -0 -0 -0 -0 -0 -1 -1 -1 -0 -0 -0 -0 -0 -0 -0 0 0 0 -0 0 -0 -0 -0 -0 0 -0 -0 -0 -0 -0 -0 -0 0 0 0 nan
nan -1 -1 -0 0 0 -0 -0 0 -0 -0 0 -0 -1 -1 -1 -1 -0 -0 0 -0 -0 -0 -0 -0 -0 -0 -0 0 0 0 -0 0 0 -0 -0 -0 0 0 0 -0 -0 -0 0 0 0 0 -0 nan
nan -0 -0 0 1 0 -0 -0 -0 -1 -0 0 0 0 -0 -1 -0 0 -0 -0 -0 -0 0 0 0 -0 -0 0 0 -0 -0 0 -0 0 0 -0 -0 -0 -0 0 -0 -0 -0 0 0 0 0 -0 nan
nan 0 -1 -0 1 0 0 0 0 -0 1 1 1 -0 0 -0 0 -0 -0 -0 -0 -0 -0 -0 -0 0 0 0 -0 -0 -0 -0 0 0 0 0 -0 -0 -0 -0 -0 -0 0 0 0 0 0 0 nan
nan -0 -1 0 0 0 -0 -0 -0 -0 0 0 1 1 0 0 -0 -1 -0 -0 -0 -0 -0 -0 -0 0 0 -0 -0 0 -0 -0 0 0 -0 -0 -0 -0 -0 -0 -0 -0 0 0 0 0 0 0 nan
nan -0 -0 -0 0 0 -0 0 -0 0 0 0 0 1 0 0 0 1 0 -0 0 -0 -0 0 0 0 0 -0 -0 0 0 0 -0 -0 -0 -0 -0 -0 -0 -0 -0 -0 0 0 0 0 0 0 nan
nan -0 -0 -1 -0 -0 0 -0 0 1 0 -0 -0 -0 0 0 0 -1 -0 0 -0 -0 0 0 0 -0 -0 0 -0 0 0 0 0 0 0 0 -0 -0 -0 -0 -0 -0 0 -0 -0 0 0 0 nan
nan 0 -0 -0 -0 -0 0 0 0 1 0 -0 -0 -0 -0 -1 -2 -0 0 0 0 0 0 0 0 -0 0 0 0 0 -0 -0 0 0 0 -0 -0 -0 0 0 -0 -0 -0 -0 0 -0 -0 0 nan
nan 0 -0 -0 -0 -0 0 0 0 1 0 -0 -0 -0 -1 -2 0 1 0 -0 0 0 0 0 -0 0 0 0 -0 -0 -0 -0 -0 -0 -0 -0 0 0 0 -0 -0 -0 -0 0 -0 -0 -0 -0 nan
nan 0 -0 -1 -0 0 -0 0 1 -0 -1 -1 -0 -1 -1 -0 -0 0 -0 -0 -0 -0 0 0 -0 0 0 -0 -0 -0 -0 0 0 0 -0 -0 -0 -0 -0 -0 -0 -0 -0 -0 -0 -0 -0 -0 nan
nan -0 -0 -0 -0 -0 -0 -0 -0 0 -0 -0 -0 -0 -1 -1 0 1 -1 -0 -0 -0 -0 -0 -0 0 0 -0 0 0 0 0 0 -0 -0 -0 0 0 -0 -0 0 -0 -0 -0 -0 0 0 -0 nan
nan -0 -0 0 -0 0 -0 0 -0 -1 -1 -1 -1 -0 0 -1 0 -0 -0 -1 -1 -0 0 -0 0 0 0 0 0 -0 -0 -0 -0 -0 -0 0 0 0 0 -0 -0 -0 0 -0 0 0 0 -0 nan
nan 0 -0 -0 0 -0 -0 -0 -0 -0 -1 -2 -2 -2 -1 -0 -0 0 -0 -0 1 1 0 1 0 0 0 0 0 -0 0 -0 -0 0 0 0 0 0 0 0 0 -0 -0 0 -0 -0 -0 -0 nan
nan -0 -1 -0 0 0 -0 -0 0 -0 -0 -1 -1 -1 -2 -1 0 1 0 1 0 0 0 0 0 0 -0 0 0 0 -0 -0 0 0 -0 -0 0 0 0 0 -0 -0 0 -0 -0 -0 -0 -0 nan
nan -1 -0 1 0 0 0 -0 -0 0 0 0 -0 -1 -1 -1 -1 -0 0 -1 -1 0 0 -0 0 0 0 0 0 0 0 0 -0 -0 0 0 0 0 -0 0 0 0 0 0 -0 -0 -0 -0 nan
nan -0 0 0 0 -0 -0 -0 -0 0 -0 0 -0 -1 -1 -2 -1 -1 -0 -0 0 0 0 0 1 0 0 0 0 0 0 0 -0 0 0 0 0 -0 0 0 0 0 0 0 0 0 -0 -0 nan
nan -0 -0 -0 0 0 -0 -0 -0 -1 -1 -1 -1 -1 -1 -2 0 0 0 0 -0 0 1 0 0 1 1 1 1 0 0 -0 -0 -0 0 1 -0 0 0 0 0 0 0 0 0 -0 -0 -0 nan
nan -0 -0 -0 0 0 -0 -0 -0 -1 -1 -1 -1 -1 -1 -0 0 -0 -0 0 0 0 0 0 1 0 0 0 1 1 1 0 0 0 0 0 0 0 0 0 -0 -0 0 0 0 0 0 -0 nan
nan -0 -1 -0 0 1 0 0 -0 0 -0 -0 -1 -0 -0 0 -0 0 -0 -0 0 0 0 0 1 0 0 1 1 0 0 0 0 0 0 0 0 0 -0 -0 0 0 0 0 0 0 0 -0 nan
nan nan nan nan nan nan nan nan nan nan nan nan nan nan nan nan nan nan nan nan nan nan nan nan nan nan nan nan nan nan nan nan nan nan nan nan nan nan nan nan nan nan nan nan nan nan nan nan nan
Wind_Speed
3 5 4 2 3 5 3 6 2 2 3 1 13 3 4 3 1 3 12 31 31 29 28 25 23 20 19 18 19 19 19 19 18 16 15 13 12 10 8 6 5 5 4 4 5 5 5 3 4
4 4 2 2 4 4 4 5 6 5 6 12 8 7 4 3 3 9 29 29 31 29 28 26 23 21 20 18 18 18 18 19 18 16 14 13 12 9 6 5 4 3 3 3 6 7 6 4 4
6 5 1 4 3 2 3 3 3 2 4 1 4 6 3 1 4 19 28 32 32 30 28 26 24 22 21 19 17 17 17 18 18 16 14 13 10 8 6 4 3 2 2 6 8 8 5 6 5
6 0 4 4 3 3 2 3 0 7 4 2 6 7 5 3 9 20 29 32 31 29 27 26 24 22 20 19 17 16 15 15 16 15 14 12 10 8 7 4 3 4 7 9 9 9 6 7 7
6 4 3 3 3 2 4 1 3 2 3 4 0 3 5 7 9 24 25 31 29 28 25 24 22 21 20 19 17 16 14 14 14 13 13 12 10 9 7 4 4 7 7 8 8 8 6 5 5
4 2 5 1 4 3 4 8 3 3 0 1 3 7 5 3 13 25 24 29 26 25 24 23 21 19 19 18 17 16 15 14 14 13 13 12 11 10 8 6 6 7 8 7 7 6 5 6 6
4 3 2 1 3 4 5 9 6 7 5 2 9 4 5 12 16 22 24 27 25 24 24 22 21 20 18 16 15 15 15 14 12 12 12 11 11 9 8 8 7 7 7 6 5 4 5 5 4
2 4 2 3 4 5 4 8 4 7 3 7 4 4 6 17 21 22 25 26 26 25 23 21 19 18 16 15 14 14 14 13 11 11 11 11 9 9 9 9 8 7 7 5 3 2 1 2 2
2 4 1 4 4 4 6 4 4 1 4 6 7 2 7 24 25 23 27 27 25 24 22 22 19 17 16 15 14 13 13 12 12 11 12 11 11 11 11 8 8 7 5 3 1 1 1 2 2
3 3 6 6 5 4 6 4 8 2 4 4 4 5 16 28 26 26 29 28 27 25 24 24 20 15 15 14 14 13 13 13 13 12 12 13 13 12 11 10 10 7 5 3 3 4 5 6 3
4 4 4 10 17 8 6 5 5 6 4 12 15 21 30 29 27 26 26 25 26 25 25 21 19 15 14 15 14 13 13 13 14 14 14 14 14 12 11 9 7 6 3 4 6 6 4 2 6
2 13 12 12 6 6 7 8 4 14 7 6 16 20 32 30 28 28 26 24 26 27 24 24 21 17 16 15 14 14 14 14 15 15 16 15 13 12 12 9 5 3 4 5 4 4 3 4 6
2 5 10 7 16 13 9 8 5 16 18 6 19 24 30 29 29 29 25 23 23 26 28 25 22 20 16 16 15 15 15 15 16 18 17 16 13 11 9 7 6 4 1 2 5 10 5 6 5
9 13 15 5 12 10 7 3 2 5 14 16 24 28 28 28 30 31 30 28 24 23 27 26 24 20 18 16 15 15 16 16 16 19 17 15 13 10 7 7 5 3 2 3 6 11 4 0 2
9 6 9 2 7 6 11 1 10 8 18 22 25 29 29 29 32 34 31 30 25 23 24 27 26 22 21 16 15 16 16 18 19 16 16 15 12 9 7 5 4 2 4 5 5 6 6 4 2
5 4 7 6 3 2 10 11 4 15 26 24 26 28 33 32 32 33 35 32 28 24 26 27 27 25 24 19 17 16 18 16 16 17 16 14 11 9 7 5 6 3 4 1 2 5 6 3 4
7 3 4 13 7 3 3 8 3 22 29 24 26 30 32 34 34 35 35 35 33 28 26 28 27 25 26 24 19 17 18 17 17 17 16 16 13 10 8 8 7 5 3 3 2 2 5 7 4
4 5 6 5 7 4 5 13 1 19 25 28 27 29 33 33 38 37 37 37 36 33 31 27 29 26 25 24 22 20 18 20 18 17 16 17 14 13 11 10 10 8 6 2 4 1 2 5 3
2 3 5 10 8 2 5 7 9 18 19 18 25 30 34 38 34 34 38 37 38 37 36 31 31 29 28 28 26 24 22 19 19 17 16 18 17 15 14 15 12 11 9 6 4 3 2 3 3
5 5 7 9 2 3 5 9 9 10 23 33 32 32 38 38 31 32 34 37 38 38 38 36 33 31 31 30 26 25 22 19 17 18 17 18 17 16 14 16 13 13 11 10 8 6 5 3 3
4 5 5 7 7 4 6 8 12 9 13 14 20 25 31 40 39 33 33 36 37 38 39 40 36 33 33 29 28 27 24 22 22 23 20 21 18 17 12 15 15 15 12 12 11 9 7 6 2
3 4 4 4 3 3 3 4 13 18 11 16 22 29 30 33 39 32 35 35 37 36 36 37 37 35 34 31 32 31 27 25 24 23 20 20 19 19 16 16 16 18 16 12 11 10 8 8 6
8 2 1 2 2 3 5 5 8 8 18 27 28 34 23 35 39 45 38 34 34 34 33 33 34 36 36 35 33 32 30 26 21 21 23 20 20 19 18 17 16 17 18 15 14 13 9 9 9
2 1 6 4 3 4 6 4 6 13 17 22 28 35 31 14 25 30 33 31 34 33 33 32 32 34 34 36 36 35 33 30 26 24 25 24 20 21 21 20 19 17 16 18 16 14 14 13 10
6 6 4 5 5 3 4 10 3 11 15 17 22 33 33 26 9 21 28 32 34 35 33 32 32 33 33 36 36 35 35 32 30 26 24 24 23 22 23 23 21 20 18 19 19 19 17 15 14
3 6 5 2 0 4 2 5 2 10 18 21 22 29 41 44 29 14 24 27 29 32 32 32 31 32 31 34 36 35 35 35 32 29 29 24 24 23 24 25 24 23 22 20 21 23 22 21 20
3 3 3 7 3 3 3 5 2 19 20 32 34 36 39 42 35 20 7 18 23 29 31 31 30 30 30 30 34 36 36 36 34 32 29 24 25 23 23 25 26 25 25 24 22 23 25 24 20
6 5 4 4 2 1 2 2 5 17 18 20 25 31 35 38 33 23 10 6 15 23 26 26 27 28 30 31 32 35 35 34 34 34 30 29 26 24 24 25 27 27 27 25 25 25 24 25 23
4 3 7 5 3 4 1 2 2 7 11 15 25 27 29 36 33 26 15 5 5 14 17 20 22 24 26 28 30 33 36 35 35 36 34 32 28 26 26 25 25 28 27 27 28 28 26 26 25
4 3 3 4 3 2 3 3 1 5 9 14 22 25 28 32 32 27 22 13 4 6 9 11 7 12 17 20 21 24 27 31 31 32 33 35 34 30 28 28 27 27 26 25 24 28 30 27 25
Wind_Direction
273 39 96 43 51 67 349 319 36 80 91 124 164 194 185 73 146 197 148 159 161 160 163 168 171 172 171 162 163 168 167 165 164 167 167 163 160 157 154 145 135 135 122 100 115 127 122 130 145
27 320 356 324 69 46 307 333 13 349 122 102 127 87 50 62 64 140 147 156 162 159 160 162 167 171 173 168 164 166 169 174 173 173 173 169 167 165 164 159 153 153 161 150 132 134 129 143 161
353 5 2 81 110 172 241 328 336 22 358 127 119 85 74 99 141 152 153 155 161 159 159 158 163 169 174 172 170 169 169 173 174 176 181 177 179 175 180 185 186 203 174 154 145 133 125 128 127
353 134 66 85 135 233 227 211 237 330 343 23 119 78 80 340 154 154 155 157 162 162 159 158 159 162 169 173 178 177 176 178 179 184 191 186 182 187 194 195 183 131 130 143 144 145 122 132 141
355 71 70 83 269 264 275 230 192 235 286 306 118 100 76 97 152 157 158 161 164 163 163 164 164 166 172 168 171 174 177 186 183 182 191 188 192 190 188 182 154 140 137 140 144 149 147 155 173
20 76 60 127 263 252 255 215 188 243 295 252 110 106 128 158 164 163 164 163 167 167 163 162 162 166 170 172 177 180 182 187 189 189 200 201 197 194 189 168 158 152 144 139 143 149 155 178 192
105 70 132 237 258 296 231 182 180 190 166 219 155 82 130 160 175 170 167 166 167 171 165 165 164 166 171 173 178 183 185 186 183 185 198 198 195 190 177 160 157 151 146 142 138 155 175 199 206
98 102 135 236 210 261 210 188 177 190 183 145 199 148 167 172 171 169 169 170 172 173 170 167 170 171 172 171 180 180 181 180 180 179 186 184 180 172 160 150 148 146 153 166 187 205 163 201 232
155 61 234 248 195 245 164 149 137 170 137 161 181 155 171 162 169 167 170 174 174 175 177 172 173 174 176 173 177 182 182 178 181 175 179 175 167 156 149 148 144 149 147 135 110 291 280 296 258
119 135 225 219 210 231 170 142 159 153 162 176 131 167 171 167 168 167 172 176 177 181 185 180 179 181 178 179 181 182 185 177 178 174 176 160 155 148 149 146 144 145 133 84 357 339 323 279 277
176 232 214 270 240 256 130 138 175 147 222 213 166 155 169 170 170 174 175 179 181 184 186 184 182 190 186 186 185 186 190 182 176 171 165 160 155 149 145 156 155 127 77 46 13 0 329 32 196
218 254 240 275 293 200 158 145 211 197 226 281 211 179 172 175 178 184 182 182 186 188 188 183 188 194 192 192 190 196 189 184 177 169 166 160 151 146 148 152 150 130 59 7 325 13 302 253 219
214 285 332 275 249 222 161 160 221 234 227 239 182 180 182 183 187 192 192 189 189 194 191 191 195 190 193 196 198 202 190 186 178 176 170 166 154 149 155 173 182 122 110 28 354 334 326 174 186
300 285 287 272 202 187 177 171 140 252 209 183 180 187 193 194 195 196 200 200 194 195 194 192 194 195 195 196 198 196 190 182 184 183 185 177 170 167 175 183 187 138 269 318 36 24 44 337 100
311 330 340 102 196 201 152 194 236 217 184 184 193 194 199 205 205 207 204 206 203 196 198 195 193 194 192 191 182 180 183 182 179 186 185 180 184 180 187 203 203 242 273 318 336 352 41 75 103
10 40 359 300 111 249 171 269 264 194 182 184 198 203 206 209 213 215 215 212 210 208 203 201 198 198 195 194 187 180 181 185 188 192 188 196 195 197 203 228 245 248 276 285 347 17 19 35 65
10 306 329 323 348 122 199 261 266 190 188 192 195 204 209 216 218 220 221 220 216 213 212 204 202 201 197 194 195 195 195 191 185 187 204 204 202 206 224 238 250 240 246 273 252 355 26 31 54
306 338 312 241 299 179 206 266 245 200 194 200 201 207 213 216 224 224 224 225 222 219 215 214 208 203 202 198 201 205 205 202 205 207 202 197 209 218 233 241 249 238 230 210 207 324 351 5 36
304 250 263 287 260 286 272 263 251 199 211 211 207 212 216 227 226 229 229 228 226 222 217 215 212 209 207 203 204 208 211 209 209 204 206 208 216 224 241 241 241 240 226 222 222 265 275 323 7
207 243 266 283 290 201 343 292 267 184 210 208 210 213 220 228 226 228 227 231 229 225 223 217 217 214 212 211 212 211 210 219 220 218 220 220 217 224 246 230 232 232 234 232 234 240 240 242 315
204 202 244 216 330 344 352 320 8 341 308 284 256 240 228 226 230 224 225 229 232 227 225 220 219 218 216 216 212 215 217 225 224 221 227 219 224 224 240 232 230 229 245 244 239 247 230 239 214
301 212 243 256 70 265 57 285 18 1 8 3 321 258 238 237 230 234 226 229 230 230 226 225 222 220 219 219 215 216 219 225 230 231 226 222 228 232 242 235 240 237 239 243 240 236 235 234 237
228 42 23 22 179 13 21 75 325 340 0 352 350 1 245 237 240 237 234 230 232 229 227 224 224 222 222 221 221 220 223 228 234 235 231 235 235 237 233 235 244 243 240 242 243 243 247 240 243
105 99 50 52 66 34 319 104 320 7 337 328 340 0 5 279 247 242 240 232 231 230 228 227 225 226 227 226 226 226 229 230 231 233 236 238 242 242 242 239 241 244 246 249 251 252 245 248 253
78 54 352 3 9 175 245 65 209 321 340 335 338 348 357 8 299 245 235 227 225 228 227 227 227 229 233 232 230 232 233 236 238 238 241 242 244 245 244 245 243 246 253 254 248 251 253 253 257
86 138 146 242 237 288 1 135 190 12 341 348 358 0 9 13 5 269 246 239 233 234 230 231 229 230 235 237 236 237 237 239 242 244 245 249 251 255 250 245 247 248 248 251 251 250 253 259 260
175 63 162 103 8 62 310 341 6 349 350 358 359 4 7 11 21 24 260 241 244 245 237 238 236 236 237 242 243 242 243 243 246 248 249 250 253 257 252 246 247 248 247 245 246 250 251 251 255
102 148 58 10 91 2 13 67 306 338 341 341 353 355 1 11 28 34 37 293 240 244 242 241 244 245 247 246 248 250 250 250 252 254 252 249 251 249 250 248 251 249 247 244 247 249 251 246 246
6 29 57 110 99 153 204 208 347 312 323 330 339 353 2 15 28 35 43 72 223 244 248 244 245 250 250 250 252 254 254 255 255 258 258 255 255 255 250 246 247 250 251 249 244 246 247 250 246
65 87 87 114 236 85 135 234 4 306 323 335 341 358 17 29 35 40 45 60 99 239 233 217 229 256 264 265 258 265 267 263 263 262 260 261 259 257 251 247 246 246 254 253 251 249 247 244 244
Height
1514 1514 1513 1513 1521 1524 1530 1521 1511 1513 1512 1513 1515 1517 1518 1519 1520 1533 1524 1529 1535 1539 1544 1548 1552 1557 1560 1563 1565 1566 1567 1569 1572 1573 1575 1576 1577 1578 1578 1579 1579 1580 1580 1580 1580 1580 1580 1581 1581
1514 1515 1515 1514 1528 1543 1535 1517 1519 1515 1513 1513 1515 1516 1519 1522 1522 1521 1524 1530 1537 1540 1545 1549 1553 1557 1560 1563 1565 1567 1568 1570 1572 1574 1575 1577 1578 1579 1579 1580 1580 1580 1581 1581 1581 1582 1582 1582 1583
1515 1516 1517 1520 1536 1543 1536 1520 1518 1515 1515 1514 1515 1517 1520 1523 1522 1523 1527 1531 1537 1541 1547 1551 1554 1558 1561 1564 1566 1568 1570 1571 1572 1574 1576 1578 1579 1579 1580 1581 1581 1581 1581 1581 1582 1583 1583 1584 1585
1516 1517 1519 1528 1528 1523 1520 1516 1520 1519 1516 1515 1516 1519 1523 1523 1523 1525 1529 1533 1538 1543 1548 1552 1555 1559 1562 1564 1566 1568 1570 1572 1573 1574 1576 1578 1579 1579 1580 1581 1581 1581 1581 1582 1583 1584 1584 1585 1586
1516 1516 1526 1533 1529 1522 1517 1515 1516 1518 1519 1517 1518 1523 1525 1526 1525 1527 1531 1535 1540 1544 1548 1552 1556 1560 1563 1565 1567 1569 1570 1572 1574 1575 1577 1578 1580 1580 1580 1581 1582 1582 1583 1583 1584 1584 1585 1586 1586
1516 1517 1536 1542 1531 1519 1515 1514 1516 1517 1516 1519 1520 1521 1526 1527 1529 1530 1534 1538 1543 1545 1549 1553 1557 1561 1563 1566 1568 1570 1571 1572 1575 1576 1578 1579 1580 1580 1580 1581 1583 1583 1583 1584 1585 1585 1586 1585 1585
1518 1523 1535 1534 1530 1522 1513 1513 1514 1515 1517 1518 1520 1523 1526 1527 1530 1532 1535 1540 1544 1547 1550 1554 1558 1561 1564 1566 1568 1570 1571 1573 1575 1576 1578 1579 1580 1581 1582 1582 1583 1584 1584 1585 1585 1584 1584 1584 1585
1517 1521 1530 1529 1528 1521 1509 1511 1511 1513 1516 1518 1520 1522 1527 1527 1530 1533 1537 1541 1544 1547 1551 1556 1559 1562 1564 1566 1568 1570 1571 1573 1574 1576 1577 1579 1580 1582 1582 1583 1583 1583 1583 1583 1584 1583 1583 1584 1584
1518 1529 1534 1524 1522 1511 1508 1511 1512 1513 1515 1518 1519 1521 1523 1526 1530 1534 1538 1542 1545 1549 1551 1555 1558 1562 1564 1566 1568 1570 1572 1573 1574 1576 1577 1579 1580 1581 1582 1584 1583 1583 1583 1583 1583 1583 1583 1583 1584
1518 1528 1522 1509 1507 1507 1507 1511 1511 1514 1515 1517 1518 1520 1522 1526 1530 1534 1537 1541 1545 1547 1551 1554 1558 1562 1563 1565 1567 1570 1571 1572 1574 1575 1577 1578 1580 1581 1583 1582 1582 1583 1583 1583 1583 1582 1583 1582 1583
1518 1521 1511 1504 1504 1508 1508 1511 1512 1512 1515 1512 1515 1519 1522 1527 1531 1534 1536 1539 1542 1547 1551 1554 1557 1561 1564 1565 1567 1569 1571 1573 1574 1576 1578 1579 1580 1581 1582 1583 1583 1583 1583 1582 1581 1582 1581 1580 1581
1518 1509 1509 1505 1504 1505 1507 1510 1510 1510 1507 1510 1513 1517 1520 1525 1529 1532 1535 1539 1543 1547 1551 1554 1558 1561 1564 1566 1567 1569 1571 1572 1574 1576 1578 1579 1581 1582 1582 1583 1583 1583 1582 1582 1581 1580 1580 1580 1580
1514 1509 1505 1502 1502 1505 1505 1507 1509 1506 1508 1509 1514 1518 1520 1523 1527 1532 1536 1540 1543 1546 1550 1553 1556 1559 1563 1565 1567 1568 1570 1572 1574 1576 1578 1580 1581 1582 1583 1584 1584 1583 1582 1581 1580 1579 1578 1578 1578
1512 1508 1503 1500 1499 1503 1506 1507 1507 1505 1508 1511 1512 1517 1521 1524 1527 1531 1534 1538 1541 1546 1549 1552 1555 1559 1562 1564 1565 1567 1569 1572 1574 1576 1578 1580 1581 1582 1584 1584 1585 1584 1582 1580 1579 1578 1578 1578 1578
1509 1510 1500 1502 1500 1501 1505 1512 1505 1505 1508 1511 1513 1516 1520 1523 1527 1528 1531 1535 1540 1543 1548 1551 1555 1559 1561 1563 1565 1566 1568 1571 1574 1576 1577 1579 1581 1582 1584 1585 1585 1584 1582 1581 1581 1579 1578 1578 1579
1515 1514 1525 1501 1502 1502 1505 1515 1499 1502 1506 1509 1512 1515 1517 1519 1521 1528 1532 1535 1539 1543 1546 1550 1553 1556 1560 1562 1564 1566 1568 1571 1573 1575 1577 1579 1580 1582 1583 1585 1585 1585 1583 1581 1581 1580 1578 1578 1578
1527 1537 1528 1515 1502 1504 1505 1508 1497 1500 1503 1506 1509 1513 1515 1519 1521 1524 1529 1533 1537 1541 1544 1548 1552 1554 1558 1562 1564 1566 1568 1570 1572 1574 1576 1578 1580 1581 1582 1584 1585 1585 1584 1583 1582 1582 1580 1578 1578
1538 1537 1528 1528 1508 1504 1508 1506 1498 1501 1502 1501 1506 1509 1511 1514 1513 1518 1522 1528 1533 1538 1542 1546 1550 1553 1557 1560 1563 1565 1567 1570 1571 1573 1575 1577 1578 1580 1581 1582 1584 1585 1585 1584 1583 1582 1582 1580 1578
1528 1532 1533 1516 1506 1508 1506 1505 1498 1496 1501 1501 1502 1504 1506 1504 1511 1515 1519 1524 1529 1534 1539 1542 1546 1551 1554 1557 1560 1562 1564 1567 1569 1571 1574 1576 1578 1579 1580 1582 1583 1584 1585 1585 1584 1583 1582 1582 1579
1530 1533 1530 1515 1505 1510 1504 1502 1491 1492 1489 1489 1491 1496 1499 1504 1507 1510 1515 1519 1523 1529 1534 1538 1542 1547 1550 1554 1557 1560 1563 1565 1567 1570 1572 1575 1576 1578 1578 1580 1582 1584 1585 1585 1586 1585 1583 1583 1582
1527 1529 1522 1521 1510 1506 1507 1510 1511 1502 1500 1502 1500 1499 1499 1498 1501 1506 1509 1512 1517 1522 1527 1533 1538 1542 1546 1550 1554 1557 1560 1562 1564 1566 1570 1573 1575 1577 1577 1579 1580 1582 1584 1585 1585 1585 1585 1584 1583
1528 1512 1513 1514 1522 1534 1512 1543 1522 1515 1509 1507 1504 1498 1497 1499 1502 1502 1505 1508 1510 1515 1523 1527 1533 1537 1542 1546 1550 1553 1555 1557 1560 1563 1567 1570 1572 1574 1576 1577 1579 1581 1582 1584 1584 1585 1585 1585 1584
1519 1507 1511 1513 1522 1524 1525 1543 1536 1523 1511 1507 1505 1495 1492 1493 1495 1497 1497 1503 1507 1513 1518 1523 1529 1533 1538 1542 1545 1549 1552 1556 1559 1562 1564 1567 1570 1572 1574 1576 1578 1580 1581 1582 1583 1584 1585 1586 1585
1507 1510 1521 1529 1534 1550 1542 1540 1552 1537 1535 1519 1506 1497 1497 1494 1493 1495 1498 1505 1506 1511 1515 1520 1525 1529 1534 1538 1542 1545 1548 1552 1555 1558 1560 1563 1566 1569 1571 1573 1576 1578 1579 1581 1582 1582 1584 1585 1585
1511 1529 1559 1554 1563 1556 1542 1551 1561 1543 1534 1528 1516 1504 1497 1492 1492 1493 1493 1497 1501 1505 1510 1516 1522 1527 1531 1535 1540 1543 1546 1550 1553 1554 1556 1559 1562 1564 1566 1570 1572 1575 1576 1577 1578 1580 1581 1582 1583
1515 1524 1556 1558 1567 1558 1539 1559 1553 1541 1535 1529 1521 1511 1497 1490 1489 1489 1493 1497 1503 1507 1509 1513 1518 1525 1529 1533 1537 1540 1544 1546 1548 1552 1554 1556 1559 1560 1561 1563 1566 1569 1571 1572 1573 1575 1577 1579 1580
1515 1530 1525 1555 1561 1560 1560 1548 1538 1534 1527 1520 1516 1512 1507 1501 1493 1490 1493 1498 1503 1505 1509 1514 1518 1523 1527 1531 1534 1537 1540 1543 1545 1547 1548 1551 1553 1555 1557 1558 1559 1561 1564 1566 1568 1569 1571 1574 1576
1504 1517 1534 1545 1559 1558 1563 1568 1563 1547 1538 1528 1523 1520 1516 1510 1502 1498 1497 1499 1501 1504 1506 1511 1517 1520 1525 1527 1531 1533 1536 1539 1541 1543 1544 1544 1546 1549 1551 1553 1555 1556 1558 1561 1562 1563 1566 1568 1570
1521 1526 1537 1543 1553 1563 1569 1572 1554 1554 1547 1540 1532 1528 1523 1516 1510 1504 1502 1501 1502 1504 1506 1509 1512 1515 1520 1523 1526 1528 1531 1533 1536 1538 1540 1540 1543 1544 1545 1545 1548 1551 1554 1556 1557 1557 1559 1562 1565
1519 1528 1536 1548 1547 1561 1562 1572 1552 1551 1549 1545 1539 1534 1529 1524 1519 1511 1508 1505 1504 1505 1507 1507 1511 1514 1518 1519 1521 1523 1525 1527 1528 1530 1533 1536 1538 1538 1537 1540 1541 1543 1547 1550 1551 1550 1550 1554 1558